Regional Weather Roundup
Issued by NWS

Home | Current Version | Previous Version | Text Only | Print | Product List | Glossary On
Versions: 1 2 3 4 5 6 7 8 9 10 11 12 13 14 15 16 17 18 19 20 21 22 23 24 25 26 27 28 29 30 31 32 33 34 35 36 37 38 39 40 41 42 43 44 45 46 47 48 49 50
697
ASUS44 KJAN 220603
RWRMS

MISSISSIPPI HOURLY WEATHER ROUNDUP
NATIONAL WEATHER SERVICE JACKSON MS
100 AM CDT MON SEP 22 2014

NOTE: "FAIR: INDICATES FEW OR NO CLOUDS BELOW 12,000 FEET WITH NO
SIGNIFICANT WEATHER AND/OR OBSTRUCTIONS TO VISIBILITY.

MSZ001>002-007>008-010>013-018>021-025>028-034>036-220700-
NORTHWEST MISSISSIPPI

CITY           SKY/WX    TMP DP  RH WIND       PRES   REMARKS
CLARKSDALE       N/A     68  57  68 N7        30.09R
CLEVELAND      CLOUDY    75  56  52 N13       30.06R
GREENWOOD      MOCLDY    74  65  73 N7        30.04R
6HR MIN TEMP:  74; 6HR MAX TEMP:  79; 6HR PCP:  0.07;

GREENVILLE     CLOUDY    77  56  48 N12       30.05R
6HR MIN TEMP:  77; 6HR MAX TEMP:  85;

GRENADA        FAIR      72  61  68 N6        30.06R
OLIVE BRANCH   CLEAR     64  55  72 N8        30.10R
OXFORD         FAIR      66  55  68 N5        30.08S
TUNICA         CLEAR     64  54  68 N8        30.09S
$$

MSZ003>006-009-014>017-022>024-029>033-037>039-220700-
NORTHEAST MISSISSIPPI

CITY           SKY/WX    TMP DP  RH WIND       PRES   REMARKS
COLUMBUS AFB   CLEAR     75  60  60 N10       30.02R
6HR MIN TEMP:  74; 6HR MAX TEMP:  80;

CORINTH          N/A     63  54  72 N6        30.07R
GOLDN TRIANGLE CLOUDY    73  66  78 N6        30.04R
STARKVILLE     FAIR      72  64  78 NE8       30.03R
TUPELO         PTCLDY    67  57  70 NE9       30.05R
6HR MIN TEMP:  67; 6HR MAX TEMP:  83; 6HR PCP:  0.69;

$$

MSZ040-058-220700-
CENTRAL MISSISSIPPI

CITY           SKY/WX    TMP DP  RH WIND       PRES   REMARKS
JACKSON INTL   PTCLDY    73  69  87 S3        30.02S
6HR MIN TEMP:  71; 6HR MAX TEMP:  81;

JACKSON HAWKNS PTCLDY    77  67  71 W3        30.03S
6HR MIN TEMP:  76; 6HR MAX TEMP:  83;

MERIDIAN KEY   PTCLDY    69  67  93 S3        30.00S
6HR MIN TEMP:  69; 6HR MAX TEMP:  82;

MERIDIAN NAS   PTCLDY    73  67  81 W3        30.00S
6HR MIN TEMP:  73; 6HR MAX TEMP:  82;

RAYMOND        FAIR      72  66  83 MISG      30.03S HAZE
VICKSBURG      CLEAR     72  68  87 CALM      30.03S
6HR MIN TEMP:  70; 6HR MAX TEMP:  83;

$$

MSZ059>079-220700-
SOUTH MISSISSIPPI

CITY           SKY/WX    TMP DP  RH WIND       PRES   REMARKS
BROOKHAVEN     FAIR      70  66  88 CALM      30.05S
COLUMBIA       FAIR      64  64 100 CALM      30.01S
HATTIESBURG    CLEAR     70  67  90 CALM      30.03R
6HR MIN TEMP:  70; 6HR MAX TEMP:  80;

MCCOMB         PTCLDY    70  66  87 CALM      30.03F
6HR MIN TEMP:  69; 6HR MAX TEMP:  83;

NATCHEZ        CLEAR     72  70  94 CALM      30.04S
6HR MIN TEMP:  72; 6HR MAX TEMP:  81;

PINE BELT      CLEAR    N/A N/A N/A W3        30.03R
$$

MSZ080>082-220700-
COASTAL MISSISSIPPI

CITY           SKY/WX    TMP DP  RH WIND       PRES   REMARKS
BILOXI         CLEAR     74  72  91 CALM      30.00F
6HR MIN TEMP:  74; 6HR MAX TEMP:  82;

PASCAGOULA     CLEAR     67  66  97 CALM      30.01S
6HR MIN TEMP:  67; 6HR MAX TEMP:  78;

GULFPORT       CLEAR     71  68  90 CALM      30.00S
6HR MIN TEMP:  71; 6HR MAX TEMP:  81;

$$



USA.gov is the U.S. government's official web portal to all federal, state and local government web resources and services.